Вернуться в каталог

SWIFT

АктивенНаукаVLEO
NORAD 28485·PAYLOAD·🇺🇸 United States

Запущен Nov 20, 2004 с Cape Canaveral Space Force Station

Loading…

Ближайшие Пролёты (ближайшие 24 часа)

TLE

СвежийSource: Space-Track

Эпоха: Sep 14, 2026, 04:55 UTC

1 28485U 04047A   26257.20538003  .00141533  00000-0  68693-3 0  9997
2 28485  20.5506 213.1233 0002476 196.8100 163.2267 15.80652070200908

Отслеживайте SWIFT в реальном времени с AllMySat

Download on the App Store